Simultaneous Nadir Overpasses (SNOs) Predictions

Prediction of SNOs between AQUA and NOAA-19 Satellite Orbit:

Table of predicted SNOs for the next 14.0 days since TLE Epoch: 9/24/2016
Index Date (AQUA) Time (AQUA) Lat,Lon (AQUA) SZA (AQUA ) Date (NOAA-19) Time (NOAA-19) Lat,Lon (NOAA-19) SZA (NOAA-19 ) Distance(km) Time Diff (sec)
1 09/25/2016 20:42:08 80.92,-170.57 84.07 09/25/2016 20:41:41 80.92,-170.64 84.09 1.23 27
2 09/25/2016 21:31:34 -80.91, -2.88 95.93 09/25/2016 21:32:43 -80.91, -2.86 95.96 0.49 69
3 09/28/2016 02:15:53 -80.93, -74.15 95.06 09/28/2016 02:15:43 -80.92, -74.12 95.07 0.93 10
4 09/30/2016 07:49:38 80.92, 22.48 85.78 09/30/2016 07:49:41 80.92, 22.41 85.78 1.37 3
5 10/02/2016 12:34:14 81.34, -55.14 87.58 10/02/2016 12:33:11 80.97, -60.00 87.89 92.81 63
6 10/02/2016 13:23:22 -80.91, 119.18 93.41 10/02/2016 13:23:41 -80.92, 119.22 93.41 0.84 19
7 10/04/2016 18:07:41 -80.94, 47.76 92.53 10/04/2016 18:06:41 -80.93, 47.86 92.52 2.01 60
8 10/04/2016 18:57:07 80.92,-144.32 87.45 10/04/2016 18:57:40 80.92,-144.30 87.43 0.36 33
9 10/06/2016 23:41:25 80.92, 144.55 88.28 10/06/2016 23:40:40 80.93, 144.51 88.31 0.97 45




NCC Satellite Simultaneous Nadir Overpasses (SNOs) Prediction Service
